TimeEST,TemperatureF,Dew PointF,Humidity,Sea Level PressureIn,VisibilityMPH,Wind Direction,Wind SpeedMPH,Gust SpeedMPH,PrecipitationIn,Events,Conditions,WindDirDegrees,DateUTC
12:54 AM,59.0,54.0,83,29.61,10.0,South,18.4,25.3,0.01,,Mostly Cloudy,190,2012-01-27 05:54:00
1:07 AM,59.0,55.4,88,29.65,10.0,SSW,15.0,21.9,0.00,Rain,Light Rain,200,2012-01-27 06:07:00
1:54 AM,57.9,54.0,87,29.59,10.0,SSW,18.4,33.4,0.00,Rain,Light Rain,200,2012-01-27 06:54:00
2:04 AM,57.2,53.6,88,29.64,10.0,SSW,23.0,33.4,0.00,,Mostly Cloudy,200,2012-01-27 07:04:00
2:54 AM,57.0,51.1,81,29.60,10.0,SSW,17.3,35.7,0.00,,Clear,200,2012-01-27 07:54:00
3:54 AM,55.0,50.0,83,29.60,10.0,SSW,17.3,23.0,0.00,Rain,Light Rain,200,2012-01-27 08:54:00
4:14 AM,53.6,51.8,94,29.65,10.0,SSW,10.4,-,0.00,,Mostly Cloudy,210,2012-01-27 09:14:00
4:38 AM,55.4,51.8,88,29.65,10.0,SW,5.8,-,N/A,,Overcast,220,2012-01-27 09:38:00
4:54 AM,53.1,51.1,93,29.61,10.0,Calm,Calm,-,0.00,Rain,Light Rain,0,2012-01-27 09:54:00
5:19 AM,53.6,50.0,88,29.66,10.0,NNW,3.5,-,0.00,,Overcast,340,2012-01-27 10:19:00
5:54 AM,53.1,46.9,80,29.63,10.0,North,4.6,-,0.00,,Overcast,350,2012-01-27 10:54:00
6:54 AM,52.0,46.0,80,29.66,10.0,North,8.1,-,0.00,,Overcast,360,2012-01-27 11:54:00
7:43 AM,51.8,44.6,76,29.72,10.0,North,10.4,-,0.00,,Overcast,350,2012-01-27 12:43:00
7:54 AM,50.0,45.0,83,29.69,10.0,North,8.1,-,0.00,,Overcast,360,2012-01-27 12:54:00
8:01 AM,50.0,44.6,82,29.72,10.0,North,8.1,-,N/A,,Mostly Cloudy,350,2012-01-27 13:01:00
8:54 AM,51.1,45.0,80,29.71,10.0,North,10.4,-,N/A,,Overcast,350,2012-01-27 13:54:00
9:21 AM,50.0,44.6,82,29.75,10.0,NNW,16.1,25.3,0.00,Rain,Light Rain,330,2012-01-27 14:21:00
9:28 AM,51.8,42.8,71,29.76,10.0,North,16.1,26.5,0.00,Rain,Light Rain,350,2012-01-27 14:28:00
9:54 AM,51.1,39.9,66,29.75,10.0,North,12.7,-,0.00,,Overcast,350,2012-01-27 14:54:00
10:54 AM,48.9,37.9,66,29.79,10.0,NNW,21.9,28.8,N/A,,Mostly Cloudy,340,2012-01-27 15:54:00
11:54 AM,50.0,37.9,63,29.83,10.0,North,12.7,25.3,N/A,,Clear,350,2012-01-27 16:54:00
12:54 PM,50.0,36.0,59,29.83,10.0,North,15.0,25.3,N/A,,Scattered Clouds,360,2012-01-27 17:54:00
1:54 PM,48.9,35.1,59,29.83,10.0,NNW,15.0,26.5,N/A,,Clear,340,2012-01-27 18:54:00
2:54 PM,48.9,34.0,56,29.85,10.0,North,12.7,24.2,N/A,,Clear,360,2012-01-27 19:54:00
3:54 PM,48.0,33.1,56,29.90,10.0,North,11.5,20.7,N/A,,Clear,350,2012-01-27 20:54:00
4:54 PM,48.9,34.0,56,29.92,10.0,North,15.0,18.4,N/A,,Clear,350,2012-01-27 21:54:00
5:54 PM,46.0,34.0,63,29.97,10.0,North,9.2,-,N/A,,Clear,350,2012-01-27 22:54:00
6:54 PM,44.1,34.0,68,30.00,10.0,NNW,9.2,-,N/A,,Clear,340,2012-01-27 23:54:00
7:54 PM,44.1,33.1,65,30.01,10.0,North,15.0,19.6,N/A,,Clear,350,2012-01-28 00:54:00
8:54 PM,41.0,33.1,73,30.02,10.0,NNW,10.4,-,N/A,,Clear,340,2012-01-28 01:54:00
9:54 PM,39.9,33.1,77,30.03,10.0,NNW,10.4,-,N/A,,Clear,330,2012-01-28 02:54:00
10:54 PM,39.9,33.1,77,30.03,10.0,Variable,5.8,-,N/A,,Clear,0,2012-01-28 03:54:00
11:54 PM,37.0,32.0,82,30.04,10.0,Calm,Calm,-,N/A,,Clear,0,2012-01-28 04:54:00